Norfolk, NE

2:55 AM CST on December 07, 2016 (GMT -0600)
Stefan Memorial

Weather History for KOFK - March, 2014

Change the Weather History Date:

Friday, March 14, 2014

  Actual Average Record
Temperature  
Mean Temperature 47 °F 37 °F  
Max Temperature 59 °F 48 °F 81 °F (1935)
Min Temperature 35 °F 26 °F -2 °F (1897)
Degree Days  
Heating Degree Days 18 28  
Month to date heating degree days 479 434  
Since 1 July heating degree days 5829 5527  
Cooling Degree Days 0 0  
Month to date cooling degree days 0 0  
Year to date cooling degree days 0 0  
Moisture  
Dew Point 23 °F    
Average Humidity 45    
Maximum Humidity 70    
Minimum Humidity 20    
Precipitation  
Precipitation 0.00 in 0.06 in 1.14 in (1913)
Month to date precipitation 0.27 0.63  
Year to date precipitation 0.83 1.98  
Snow  
Snow 0.00 in 0.20 in - ()
Month to date snowfall 3.7 2.4  
Since 1 July snowfall 15.1 25.2  
Snow Depth 0.00 in    
Sea Level Pressure  
Sea Level Pressure 29.86 in    
Wind  
Wind Speed 14 mph (NW)    
Max Wind Speed 31 mph    
Max Gust Speed 39 mph    
Visibility 10 miles    
Events      
T = Trace of Precipitation, MM = Missing Value Source: NWS Daily Summary

Daily Weather History Graph

Daily Weather History Graph

Search for Another Location

Airport or City:

Trip Planner

Search our weather history database for the weather conditions in past years. The results will help you decide how hot, cold, wet, or windy it might be!

Date:

Astronomy

Mar. 14, 2014 Rise Set
Actual Time 7:43 AM CDT 7:35 PM CDT
Civil Twilight 7:15 AM CDT 8:03 PM CDT
Nautical Twilight 6:43 AM CDT 8:35 PM CDT
Astronomical Twilight 6:10 AM CDT 9:08 PM CDT
Moon 5:57 PM CDT (3/14) 6:25 AM CDT (3/14)
Length of Visible Light 12h 47m
Length of Day
11h 51m
Waxing Gibbous, 96% of the Moon is Illuminated
Mar 14
Waxing Gibbous
Mar 16
Full
Mar 23
Last Quarter
Mar 30
New
Apr 7
First Quarter

Hourly Weather History & Observations

Time (CDT) Temp. Windchill Dew Point Humidity Pressure Visibility Wind Dir Wind Speed Gust Speed Precip Events Conditions
12:56 AM 41.0 °F 36.4 °F 18.0 °F 40% 29.67 in 10.0 mi West 6.9 mph - N/A   Clear
1:56 AM 48.0 °F - 26.1 °F 42% 29.68 in 10.0 mi NW 9.2 mph - N/A   Clear
2:56 AM 50.0 °F - 28.0 °F 43% 29.71 in 10.0 mi NW 12.7 mph 19.6 mph N/A   Scattered Clouds
3:56 AM 46.9 °F - 28.9 °F 50% 29.74 in 10.0 mi NW 16.1 mph - N/A   Clear
4:56 AM 44.1 °F 37.1 °F 28.0 °F 53% 29.77 in 10.0 mi NW 15.0 mph - N/A   Scattered Clouds
5:56 AM 41.0 °F 33.9 °F 27.0 °F 57% 29.80 in 10.0 mi NW 12.7 mph - N/A   Clear
6:56 AM 37.9 °F 31.5 °F 27.0 °F 65% 29.83 in 10.0 mi WNW 9.2 mph - N/A   Clear
7:56 AM 36.0 °F 28.0 °F 27.0 °F 70% 29.87 in 10.0 mi West 11.5 mph - N/A   Clear
8:56 AM 39.0 °F 31.0 °F 28.0 °F 65% 29.90 in 10.0 mi WNW 13.8 mph - N/A   Clear
9:56 AM 44.1 °F 36.2 °F 27.0 °F 51% 29.90 in 10.0 mi WNW 18.4 mph 24.2 mph N/A   Clear
10:56 AM 46.9 °F - 25.0 °F 42% 29.91 in 10.0 mi WNW 20.7 mph - N/A   Clear
11:56 AM 50.0 °F - 19.0 °F 29% 29.93 in 10.0 mi NW 26.5 mph 32.2 mph N/A   Clear
12:56 PM 53.1 °F - 17.1 °F 24% 29.93 in 10.0 mi NW 27.6 mph 36.8 mph N/A   Clear
1:56 PM 55.0 °F - 16.0 °F 22% 29.91 in 10.0 mi NW 21.9 mph 34.5 mph N/A   Clear
2:56 PM 57.0 °F - 17.1 °F 21% 29.90 in 10.0 mi NW 18.4 mph 31.1 mph N/A   Clear
3:56 PM 57.0 °F - 18.0 °F 22% 29.89 in 10.0 mi NW 17.3 mph 25.3 mph N/A   Clear
4:56 PM 57.9 °F - 19.9 °F 23% 29.89 in 10.0 mi WNW 20.7 mph 27.6 mph N/A   Clear
5:56 PM 57.9 °F - 21.9 °F 25% 29.90 in 10.0 mi NW 13.8 mph 23.0 mph N/A   Clear
6:56 PM 55.9 °F - 23.0 °F 28% 29.91 in 10.0 mi NNW 8.1 mph - N/A   Clear
7:56 PM 51.1 °F - 23.0 °F 33% 29.91 in 10.0 mi Calm Calm - N/A   Clear
8:56 PM 44.1 °F 40.8 °F 24.1 °F 45% 29.92 in 10.0 mi East 5.8 mph - N/A   Clear
9:56 PM 43.0 °F 39.5 °F 23.0 °F 45% 29.92 in 10.0 mi ESE 5.8 mph - N/A   Clear
10:56 PM 35.1 °F 29.3 °F 23.0 °F 61% 29.93 in 10.0 mi SE 6.9 mph - N/A   Clear
11:56 PM 36.0 °F 29.6 °F 23.0 °F 59% 29.91 in 10.0 mi ESE 8.1 mph - N/A   Clear